"SCET";"TARGET";"ELECTRON_DENSITY";"ERROR_FLAG";"ELECTRON_DENSITY_ERROR";"FREQ_FCE";"MEASURED_VALUE";"MEASURED_ITEM";"FREQ_PLASMA";"FREQ_UPPER_HYBRID";"FREQ_R_EQUALS_ZERO";"FREQ_L_EQUALS_ZERO";"ORBIT_NUMBER";"SATURN_RADIUS";"SATURN_IAU_LONGITUDE";"SATURN_SLS4_S_LONGITUDE";"SATURN_SLS4_N_LONGITUDE";"SATURN_SLS5_S_LONGITUDE";"SATURN_SLS5_N_LONGITUDE";"SATURN_LOCAL_TIME";"SATURN_KRONOGRAPHIC_LATITUDE";"SATURN_MAGNETIC_LATITUDE";"SATURN_L";"SATURN_L_OFFSET";"SATURN_SOLAR_EQUATORIAL_X";"SATURN_SOLAR_EQUATORIAL_Y";"SATURN_SOLAR_EQUATORIAL_Z";"SATURN_ALTITUDE";"ENCELADUS_ENCOUNTER_NUMBER";"ENCELADUS_RADIUS";"ENCELADUS_COROTATIONAL_X";"ENCELADUS_COROTATIONAL_Y";"ENCELADUS_COROTATIONAL_Z";"ENCELADUS_TRUE_ANOMALY";"ENCELADUS_PERIAPSIS_TIME";"JUPITER_RADIUS";"JUPITER_SYSTEMIII_LONGITUDE";"JUPITER_MAGNETIC_LATITUDE";"JUPITER_MAGNETIC_LOCAL_TIME";"JUPITER_L";"IO_PHASE";"EARTH_RADIUS";"EARTH_MAGNETIC_LATITUDE";"EARTH_LOCAL_TIME";"EARTH_L"
"[UTC]";"[0=Saturn, 1=Enceladus, 2=Jupiter, 3=Earth]";"[cm-3]";"[0=automated, 1=manual]";"[normalized density error]";"[Hz]";"[Hz]";"[0=upper hybrid frequency, 1=plasma frequency cutoff]";"[Hz]";"[Hz]";"[Hz]";"[Hz}";"[0, A, B, C, 3, 4, ... , 292, 293]";"[Rs where 1Rs=60268km]";"[degrees]";"[degrees]";"[degrees]";"[degrees]";"[degrees]";"[hours]";"[degrees]";"[degrees where offset=2293km north]";"[Rs where 1Rs=60268km]";"[Rs where 1Rs=60268km and offset=2293km north]";"[Rs where 1Rs=60268km]";"[Rs where 1Rs=60268km]";"[Rs where 1Rs=60268km]";"[km where ellipsoid a,b=60268km and c=54364km]";"[E0, E1, E2, ... , E21, E22]";"[Renc where 1Renc=252.1km]";"[Renc where 1Renc=252.1km]";"[Renc where 1Renc=252.1km]";"[Renc where 1Renc=252.1km]";"[degrees]";"[UTC]";"[Rj where 1Rj=71492km]";"[degrees]";"[degrees using JRM09 model]";"[hours using JRM09 model]";"[Rj where 1Rj=71492km]";"[degrees]";"[Re where 1Re=6378.1366km]";"[degrees]";"[hours]";"[Re where 1Re=6378.1366km]"
2017-05-02T19:21:36.441Z;0;3.9620e+00;0;     0.113;462902.719;  17875.014; 1;  17875.014; 463247.719; 463591.938;    689.218;272;   1.150; 232.395;;;  25.383; 180.867;  11.880;  26.131;  24.405;   1.426;   1.132;   1.032;  -0.032;   0.506;10279.646;;;;;;;;;;;;;;;;;
2017-05-02T19:21:44.441Z;0;4.3550e+00;0;     0.148;462902.719;  18740.234; 1;  18740.234; 463281.906; 463660.156;    757.443;272;   1.148; 232.353;;;  25.340; 180.823;  11.887;  25.956;  24.225;   1.420;   1.131;   1.032;  -0.030;   0.503;10190.168;;;;;;;;;;;;;;;;;
2017-05-02T19:22:00.441Z;0;4.2200e+00;0;     0.117;462154.875;  18447.271; 1;  18447.271; 462522.906; 462890.031;    735.168;272;   1.146; 232.268;;;  25.255; 180.735;  11.903;  25.604;  23.865;   1.409;   1.129;   1.033;  -0.026;   0.495;10012.392;;;;;;;;;;;;;;;;;
2017-05-02T19:22:08.441Z;0;4.3550e+00;0;     0.171;462154.875;  18740.234; 1;  18740.234; 462534.688; 462913.531;    758.665;272;   1.145; 232.226;;;  25.213; 180.692;  11.911;  25.427;  23.684;   1.403;   1.128;   1.034;  -0.024;   0.491; 9924.098;;;;;;;;;;;;;;;;;
2017-05-02T19:22:16.441Z;0;4.3550e+00;0;     0.174;462154.875;  18740.234; 1;  18740.234; 462534.688; 462913.531;    758.665;272;   1.144; 232.185;;;  25.171; 180.648;  11.919;  25.250;  23.502;   1.398;   1.127;   1.034;  -0.022;   0.488; 9836.205;;;;;;;;;;;;;;;;;
2017-05-02T19:22:24.441Z;0;4.0890e+00;0;     0.140;462154.875;  18158.889; 1;  18158.889; 462511.500; 462867.281;    712.397;272;   1.142; 232.143;;;  25.129; 180.605;  11.926;  25.072;  23.320;   1.392;   1.126;   1.035;  -0.020;   0.484; 9748.716;;;;;;;;;;;;;;;;;
2017-05-02T19:22:32.440Z;0;4.4950e+00;0;     0.083;462154.875;  19037.850; 1;  19037.850; 462546.812; 462937.781;    782.912;272;   1.141; 232.101;;;  25.087; 180.562;  11.934;  24.894;  23.138;   1.387;   1.125;   1.035;  -0.018;   0.480; 9661.645;;;;;;;;;;;;;;;;;
2017-05-02T19:22:48.440Z;0;4.7870e+00;0;     0.143;462154.875;  19647.334; 1;  19647.334; 462572.312; 462988.625;    833.752;272;   1.139; 232.018;;;  25.003; 180.475;  11.950;  24.537;  22.772;   1.376;   1.122;   1.036;  -0.014;   0.473; 9488.713;;;;;;;;;;;;;;;;;
2017-05-02T19:22:56.440Z;0;5.2620e+00;0;     0.447;462154.875;  20598.342; 1;  20598.342; 462613.688; 463071.125;    916.256;272;   1.138; 231.977;;;  24.962; 180.432;  11.957;  24.357;  22.588;   1.371;   1.121;   1.036;  -0.011;   0.469; 9402.868;;;;;;;;;;;;;;;;;
2017-05-02T19:23:04.440Z;0;4.3550e+00;0;     0.113;461032.812;  18740.234; 1;  18740.234; 461413.531; 461793.312;    760.506;272;   1.136; 231.936;;;  24.920; 180.390;  11.965;  24.177;  22.404;   1.365;   1.120;   1.037;  -0.009;   0.465; 9317.443;;;;;;;;;;;;;;;;;
2017-05-02T19:23:12.440Z;0;5.7830e+00;0;     0.144;461032.812;  21595.383; 1;  21595.383; 461538.312; 462042.156;   1009.346;272;   1.135; 231.894;;;  24.879; 180.347;  11.973;  23.997;  22.219;   1.360;   1.119;   1.037;  -0.007;   0.462; 9232.440;;;;;;;;;;;;;;;;;
2017-05-02T19:23:20.440Z;0;5.9680e+00;0;     0.143;461032.812;  21938.342; 1;  21938.342; 461554.469; 462074.375;   1041.587;272;   1.134; 231.853;;;  24.838; 180.304;  11.981;  23.816;  22.034;   1.355;   1.118;   1.038;  -0.005;   0.458; 9147.863;;;;;;;;;;;;;;;;;
2017-05-02T19:23:36.440Z;0;5.9680e+00;0;     0.167;461032.812;  21938.342; 1;  21938.342; 461554.469; 462074.375;   1041.587;272;   1.132; 231.771;;;  24.756; 180.220;  11.996;  23.452;  21.662;   1.345;   1.116;   1.038;  -0.001;   0.450; 8979.996;;;;;;;;;;;;;;;;;
2017-05-02T19:23:44.440Z;0;6.3570e+00;0;     0.136;461032.812;  22640.684; 1;  22640.684; 461588.375; 462141.969;   1109.184;272;   1.131; 231.730;;;  24.715; 180.178;  12.004;  23.270;  21.476;   1.340;   1.115;   1.039;   0.001;   0.447; 8896.713;;;;;;;;;;;;;;;;;
2017-05-02T19:23:52.440Z;0;7.4410e+00;0;     0.154;461032.812;  24496.492; 1;  24496.492; 461683.125; 462330.750;   1297.941;272;   1.129; 231.690;;;  24.674; 180.136;  12.012;  23.087;  21.289;   1.335;   1.114;   1.039;   0.003;   0.443; 8813.867;;;;;;;;;;;;;;;;;
2017-05-02T19:24:00.440Z;0;7.6800e+00;0;     0.229;459616.125;  24885.523; 1;  24885.523; 460289.312; 460959.594;   1343.478;272;   1.128; 231.649;;;  24.634; 180.094;  12.019;  22.904;  21.102;   1.330;   1.113;   1.039;   0.005;   0.439; 8731.463;;;;;;;;;;;;;;;;;
2017-05-02T19:24:08.440Z;0;9.8820e+00;0;     0.188;459616.125;  28228.631; 1;  28228.631; 460482.188; 461343.375;   1727.251;272;   1.127; 231.608;;;  24.593; 180.052;  12.027;  22.720;  20.914;   1.325;   1.112;   1.040;   0.007;   0.435; 8649.502;;;;;;;;;;;;;;;;;
2017-05-02T19:24:24.440Z;0;5.6040e+00;0;     0.456;459616.125;  21257.785; 1;  21257.785; 460107.469; 460597.219;    981.103;272;   1.125; 231.527;;;  24.513; 179.969;  12.042;  22.351;  20.537;   1.315;   1.110;   1.040;   0.012;   0.428; 8486.925;;;;;;;;;;;;;;;;;
2017-05-02T19:24:32.440Z;0;6.3570e+00;0;     0.150;459616.125;  22640.684; 1;  22640.684; 460173.406; 460728.719;   1112.587;272;   1.124; 231.487;;;  24.473; 179.927;  12.050;  22.166;  20.348;   1.310;   1.109;   1.041;   0.014;   0.424; 8406.315;;;;;;;;;;;;;;;;;
2017-05-02T19:24:40.440Z;0;5.9680e+00;0;     0.135;459616.125;  21938.342; 1;  21938.342; 460139.406; 460660.906;   1044.783;272;   1.123; 231.447;;;  24.433; 179.886;  12.058;  21.981;  20.158;   1.306;   1.108;   1.041;   0.016;   0.420; 8326.163;;;;;;;;;;;;;;;;;
2017-05-02T19:24:48.440Z;0;4.7870e+00;0;     0.219;459616.125;  19647.334; 1;  19647.334; 460035.875; 460454.469;    838.341;272;   1.122; 231.407;;;  24.393; 179.845;  12.066;  21.795;  19.968;   1.301;   1.107;   1.041;   0.018;   0.416; 8246.471;;;;;;;;;;;;;;;;;
2017-05-02T19:24:56.440Z;0;5.2620e+00;0;     0.156;459616.125;  20598.342; 1;  20598.342; 460077.469; 460537.406;    921.297;272;   1.121; 231.366;;;  24.353; 179.804;  12.073;  21.608;  19.778;   1.297;   1.106;   1.042;   0.020;   0.413; 8167.241;;;;;;;;;;;;;;;;;
2017-05-02T19:25:12.439Z;0;8.4410e+00;0;     0.278;457971.156;  26090.080; 1;  26090.080; 458713.719; 459452.688;   1481.529;272;   1.119; 231.286;;;  24.274; 179.722;  12.089;  21.234;  19.396;   1.287;   1.104;   1.042;   0.024;   0.405; 8010.194;;;;;;;;;;;;;;;;;
2017-05-02T19:25:20.439Z;0;6.5600e+00;0;     0.277;457971.156;  23000.242; 1;  23000.242; 458548.344; 459123.375;   1152.220;272;   1.117; 231.247;;;  24.235; 179.681;  12.096;  21.047;  19.205;   1.283;   1.103;   1.043;   0.026;   0.401; 7932.374;;;;;;;;;;;;;;;;;
2017-05-02T19:25:28.439Z;0;6.7700e+00;0;     0.154;457971.156;  23365.512; 1;  23365.512; 458566.812; 459160.156;   1189.012;272;   1.116; 231.207;;;  24.196; 179.641;  12.104;  20.858;  19.012;   1.279;   1.102;   1.043;   0.028;   0.397; 7855.030;;;;;;;;;;;;;;;;;
2017-05-02T19:25:36.439Z;0;5.0980e+00;0;     0.178;457971.156;  20276.332; 1;  20276.332; 458419.781; 458867.125;    895.967;272;   1.115; 231.167;;;  24.157; 179.601;  12.112;  20.670;  18.820;   1.274;   1.101;   1.043;   0.031;   0.394; 7778.165;;;;;;;;;;;;;;;;;
2017-05-02T19:25:44.439Z;0;7.4410e+00;0;     0.135;457971.156;  24496.492; 1;  24496.492; 458625.812; 459277.719;   1306.569;272;   1.114; 231.127;;;  24.118; 179.560;  12.119;  20.481;  18.627;   1.270;   1.101;   1.043;   0.033;   0.390; 7701.782;;;;;;;;;;;;;;;;;
2017-05-02T19:26:00.439Z;0;1.0860e+01;0;     0.151;456132.719;  29595.006; 1;  29595.006; 457091.812; 458044.906;   1912.180;272;   1.112; 231.048;;;  24.040; 179.480;  12.134;  20.101;  18.240;   1.261;   1.099;   1.044;   0.037;   0.382; 7550.479;;;;;;;;;;;;;;;;;
2017-05-02T19:26:08.439Z;0;1.2710e+01;0;     0.125;456132.719;  32020.846; 1;  32020.846; 457255.281; 458369.625;   2236.917;272;   1.111; 231.009;;;  24.002; 179.440;  12.142;  19.911;  18.046;   1.257;   1.098;   1.044;   0.039;   0.378; 7475.564;;;;;;;;;;;;;;;;;
2017-05-02T19:26:16.439Z;0;1.2320e+01;0;     0.078;456132.719;  31520.270; 1;  31520.270; 457220.500; 458300.562;   2167.851;272;   1.110; 230.969;;;  23.963; 179.400;  12.150;  19.720;  17.852;   1.253;   1.097;   1.044;   0.041;   0.375; 7401.145;;;;;;;;;;;;;;;;;
2017-05-02T19:26:24.439Z;0;1.3980e+01;0;     0.090;456132.719;  33570.781; 1;  33570.781; 457366.438; 458590.250;   2457.526;272;   1.109; 230.930;;;  23.925; 179.361;  12.157;  19.529;  17.657;   1.249;   1.096;   1.045;   0.043;   0.371; 7327.225;;;;;;;;;;;;;;;;;
2017-05-02T19:26:32.439Z;0;1.1570e+01;0;     0.156;456132.719;  30542.473; 1;  30542.473; 457154.125; 458168.750;   2036.024;272;   1.108; 230.891;;;  23.887; 179.321;  12.165;  19.338;  17.461;   1.245;   1.095;   1.045;   0.045;   0.367; 7253.807;;;;;;;;;;;;;;;;;
2017-05-02T19:26:48.439Z;0;2.1050e+01;0;     0.138;456132.719;  41202.051; 1;  41202.051; 457989.812; 459824.562;   3691.862;272;   1.106; 230.812;;;  23.810; 179.242;  12.180;  18.953;  17.070;   1.237;   1.093;   1.045;   0.049;   0.359; 7108.492;;;;;;;;;;;;;;;;;
2017-05-02T19:26:56.439Z;0;2.0400e+01;0;     0.090;456132.719;  40557.945; 1;  40557.945; 457932.312; 459710.938;   3578.220;272;   1.105; 230.773;;;  23.773; 179.203;  12.188;  18.760;  16.873;   1.233;   1.093;   1.045;   0.052;   0.355; 7036.600;;;;;;;;;;;;;;;;;
2017-05-02T19:27:04.439Z;0;2.3880e+01;0;     0.079;454125.344;  43882.395; 1;  43882.395; 456240.625; 458326.875;   4201.509;272;   1.104; 230.734;;;  23.735; 179.164;  12.195;  18.567;  16.676;   1.229;   1.092;   1.046;   0.054;   0.352; 6965.224;;;;;;;;;;;;;;;;;
2017-05-02T19:27:12.439Z;0;1.5850e+01;0;     0.129;454125.344;  35754.684; 1;  35754.684; 455530.719; 456923.188;   2797.839;272;   1.103; 230.695;;;  23.697; 179.125;  12.203;  18.373;  16.479;   1.225;   1.091;   1.046;   0.056;   0.348; 6894.367;;;;;;;;;;;;;;;;;
2017-05-02T19:27:20.439Z;0;1.8560e+01;0;     0.116;454125.344;  38685.422; 1;  38685.422; 455770.125; 457397.250;   3271.908;272;   1.102; 230.656;;;  23.660; 179.086;  12.211;  18.179;  16.281;   1.221;   1.090;   1.046;   0.058;   0.344; 6824.032;;;;;;;;;;;;;;;;;
2017-05-02T19:27:36.439Z;0;2.6250e+01;0;     0.142;454125.344;  46006.477; 1;  46006.477; 456449.812; 458739.281;   4613.940;272;   1.101; 230.579;;;  23.585; 179.009;  12.226;  17.790;  15.885;   1.214;   1.088;   1.046;   0.062;   0.336; 6684.940;;;;;;;;;;;;;;;;;
2017-05-02T19:27:44.438Z;0;7.4250e+01;0;     0.058;454125.344;  77380.922; 1;  77380.922; 460670.875; 466948.625;  12823.268;272;   1.100; 230.540;;;  23.548; 178.971;  12.233;  17.595;  15.686;   1.210;   1.088;   1.046;   0.064;   0.332; 6616.199;;;;;;;;;;;;;;;;;
2017-05-02T19:27:52.438Z;0;7.4250e+01;0;     0.068;454125.344;  77380.922; 1;  77380.922; 460670.875; 466948.625;  12823.268;272;   1.099; 230.501;;;  23.511; 178.933;  12.241;  17.399;  15.487;   1.207;   1.087;   1.046;   0.066;   0.328; 6547.984;;;;;;;;;;;;;;;;;
2017-05-02T19:28:00.438Z;0;7.1950e+01;0;     0.096;451992.719;  76171.234; 1;  76171.234; 458366.094; 464484.094;  12491.400;272;   1.098; 230.463;;;  23.474; 178.894;  12.249;  17.203;  15.287;   1.203;   1.086;   1.047;   0.068;   0.325; 6480.307;;;;;;;;;;;;;;;;;
2017-05-02T19:28:08.438Z;0;9.2580e+01;0;     0.073;451992.719;  86404.031; 1;  86404.031; 460177.219; 467946.781;  15954.072;272;   1.097; 230.424;;;  23.438; 178.856;  12.256;  17.006;  15.087;   1.200;   1.085;   1.047;   0.070;   0.321; 6413.172;;;;;;;;;;;;;;;;;
2017-05-02T19:28:24.438Z;0;1.0500e+02;0;     0.087;451992.719;  92024.938; 1;  92024.938; 461265.656; 470010.562;  18017.869;272;   1.095; 230.347;;;  23.365; 178.781;  12.271;  16.612;  14.687;   1.193;   1.084;   1.047;   0.075;   0.313; 6280.541;;;;;;;;;;;;;;;;;
2017-05-02T19:28:32.438Z;0;1.2220e+02;0;     0.051;451992.719;  99283.438; 1;  99283.438; 462768.406; 472839.531;  20846.820;272;   1.094; 230.309;;;  23.328; 178.743;  12.279;  16.414;  14.486;   1.189;   1.083;   1.047;   0.077;   0.309; 6215.050;;;;;;;;;;;;;;;;;
2017-05-02T19:28:40.438Z;0;1.0940e+02;0;     0.065;451992.719;  93932.969; 1;  93932.969; 461650.094; 470736.531;  18743.824;272;   1.093; 230.270;;;  23.292; 178.705;  12.286;  16.216;  14.284;   1.186;   1.082;   1.047;   0.079;   0.305; 6150.115;;;;;;;;;;;;;;;;;
2017-05-02T19:28:48.438Z;0;9.7940e+01;0;     0.054;451992.719;  88870.844; 1;  88870.844; 460646.750; 468838.656;  16845.938;272;   1.093; 230.232;;;  23.256; 178.668;  12.294;  16.018;  14.083;   1.183;   1.082;   1.047;   0.081;   0.301; 6085.737;;;;;;;;;;;;;;;;;
2017-05-02T19:28:56.438Z;0;9.7940e+01;0;     0.055;451992.719;  88870.844; 1;  88870.844; 460646.750; 468838.656;  16845.938;272;   1.092; 230.194;;;  23.220; 178.631;  12.302;  15.819;  13.881;   1.179;   1.081;   1.047;   0.083;   0.297; 6021.920;;;;;;;;;;;;;;;;;
2017-05-02T19:29:12.438Z;0;1.3160e+02;0;     0.054;449780.781; 103018.680; 1; 103018.680; 461427.781; 472253.562;  22472.775;272;   1.090; 230.117;;;  23.148; 178.556;  12.317;  15.420;  13.475;   1.173;   1.079;   1.047;   0.087;   0.290; 5895.983;;;;;;;;;;;;;;;;;
2017-05-02T19:29:20.438Z;0;9.4390e+01;0;     0.094;449780.781;  87244.836; 1;  87244.836; 458164.188; 466110.938;  16330.149;272;   1.089; 230.079;;;  23.113; 178.519;  12.324;  15.220;  13.272;   1.170;   1.079;   1.047;   0.089;   0.286; 5833.869;;;;;;;;;;;;;;;;;
2017-05-02T19:29:28.438Z;0;9.0970e+01;0;     0.084;449780.781;  85648.570; 1;  85648.570; 457862.906; 465538.188;  15757.413;272;   1.088; 230.041;;;  23.077; 178.483;  12.332;  15.020;  13.069;   1.167;   1.078;   1.047;   0.091;   0.282; 5772.329;;;;;;;;;;;;;;;;;
2017-05-02T19:29:36.438Z;0;8.7670e+01;0;     0.064;449780.781;  84081.516; 1;  84081.516; 457572.344; 464984.938;  15204.151;272;   1.087; 230.003;;;  23.042; 178.446;  12.339;  14.819;  12.865;   1.164;   1.077;   1.047;   0.093;   0.278; 5711.367;;;;;;;;;;;;;;;;;
2017-05-02T19:29:44.438Z;0;8.4490e+01;0;     0.075;449780.781;  82543.133; 1;  82543.133; 457292.156; 464450.531;  14669.740;272;   1.087; 229.965;;;  23.007; 178.409;  12.347;  14.618;  12.661;   1.161;   1.077;   1.047;   0.095;   0.274; 5650.984;;;;;;;;;;;;;;;;;
2017-05-02T19:30:00.438Z;0;9.0970e+01;0;     0.060;447576.469;  85648.570; 1;  85648.570; 455697.688; 463406.375;  15829.902;272;   1.085; 229.889;;;  22.936; 178.336;  12.362;  14.215;  12.252;   1.155;   1.075;   1.047;   0.100;   0.266; 5531.974;;;;;;;;;;;;;;;;;
2017-05-02T19:30:08.438Z;0;9.4390e+01;0;     0.091;447576.469;  87244.836; 1;  87244.836; 456000.406; 463981.562;  16405.094;272;   1.084; 229.851;;;  22.898; 178.297;  12.369;  14.013;  12.047;   1.152;   1.075;   1.047;   0.102;   0.262; 5473.352;;;;;;;;;;;;;;;;;
2017-05-02T19:30:16.437Z;0;9.4390e+01;0;     0.438;447576.469;  87244.836; 1;  87244.836; 456000.406; 463981.562;  16405.094;272;   1.084; 229.813;;;  22.859; 178.257;  12.377;  13.811;  11.842;   1.149;   1.074;   1.047;   0.104;   0.259; 5415.331;;;;;;;;;;;;;;;;;
2017-05-02T19:30:24.437Z;0;9.7940e+01;0;     0.056;447576.469;  88870.844; 1;  88870.844; 456314.281; 464576.938;  17000.471;272;   1.083; 229.776;;;  22.820; 178.218;  12.384;  13.608;  11.636;   1.146;   1.073;   1.047;   0.106;   0.255; 5357.898;;;;;;;;;;;;;;;;;
2017-05-02T19:30:32.437Z;0;9.7940e+01;0;     0.070;447576.469;  88870.844; 1;  88870.844; 456314.281; 464576.938;  17000.471;272;   1.082; 229.738;;;  22.781; 178.178;  12.392;  13.405;  11.430;   1.143;   1.073;   1.047;   0.108;   0.251; 5301.064;;;;;;;;;;;;;;;;;
2017-05-02T19:30:48.437Z;0;1.0160e+02;0;     0.050;447576.469;  90527.156; 1;  90527.156; 456639.750; 465193.156;  17616.695;272;   1.080; 229.662;;;  22.703; 178.099;  12.407;  12.997;  11.017;   1.138;   1.071;   1.047;   0.112;   0.243; 5189.208;;;;;;;;;;;;;;;;;
2017-05-02T19:30:56.437Z;0;1.0160e+02;0;     0.212;447576.469;  90527.156; 1;  90527.156; 456639.750; 465193.156;  17616.695;272;   1.080; 229.625;;;  22.664; 178.060;  12.415;  12.793;  10.810;   1.135;   1.071;   1.047;   0.114;   0.239; 5134.191;;;;;;;;;;;;;;;;;
2017-05-02T19:31:04.437Z;0;9.4390e+01;0;     0.144;445473.094;  87244.836; 1;  87244.836; 453936.031; 461950.312;  16477.230;272;   1.079; 229.587;;;  22.626; 178.021;  12.422;  12.589;  10.603;   1.133;   1.070;   1.047;   0.116;   0.235; 5079.786;;;;;;;;;;;;;;;;;
2017-05-02T19:31:12.437Z;0;1.1780e+02;0;     0.059;445473.094;  97466.914; 1;  97466.914; 456011.031; 465864.844;  20391.750;272;   1.078; 229.549;;;  22.587; 177.981;  12.430;  12.384;  10.395;   1.130;   1.070;   1.047;   0.118;   0.231; 5025.995;;;;;;;;;;;;;;;;;
2017-05-02T19:31:20.437Z;0;1.0540e+02;0;     0.200;445473.094;  92214.344; 1;  92214.344; 454917.312; 463807.188;  18334.096;272;   1.078; 229.512;;;  22.548; 177.942;  12.437;  12.179;  10.188;   1.128;   1.069;   1.046;   0.120;   0.227; 4972.822;;;;;;;;;;;;;;;;;
2017-05-02T19:31:36.437Z;0;8.7670e+01;0;     0.051;445473.094;  84081.516; 1;  84081.516; 453338.688; 460814.812;  15341.740;272;   1.076; 229.436;;;  22.471; 177.864;  12.452;  11.768;   9.771;   1.123;   1.068;   1.046;   0.124;   0.219; 4868.341;;;;;;;;;;;;;;;;;
2017-05-02T19:31:44.437Z;0;9.0970e+01;0;     0.095;445473.094;  85648.570; 1;  85648.570; 453631.938; 461372.750;  15899.677;272;   1.075; 229.399;;;  22.432; 177.825;  12.460;  11.561;   9.563;   1.120;   1.067;   1.046;   0.127;   0.215; 4817.039;;;;;;;;;;;;;;;;;
2017-05-02T19:31:52.437Z;0;1.0160e+02;0;     0.244;445473.094;  90527.156; 1;  90527.156; 454578.312; 463166.844;  17693.766;272;   1.075; 229.361;;;  22.393; 177.785;  12.467;  11.355;   9.354;   1.118;   1.067;   1.046;   0.129;   0.212; 4766.366;;;;;;;;;;;;;;;;;
2017-05-02T19:32:00.437Z;0;8.4490e+01;0;     0.098;443561.781;  82543.133; 1;  82543.133; 451176.719; 458424.375;  14862.580;272;   1.074; 229.324;;;  22.354; 177.746;  12.475;  11.148;   9.145;   1.116;   1.066;   1.046;   0.131;   0.208; 4716.326;;;;;;;;;;;;;;;;;
2017-05-02T19:32:08.437Z;0;9.4390e+01;0;     0.082;443561.781;  87244.836; 1;  87244.836; 452060.531; 460105.094;  16543.311;272;   1.073; 229.286;;;  22.316; 177.707;  12.482;  10.941;   8.935;   1.114;   1.066;   1.046;   0.133;   0.204; 4666.921;;;;;;;;;;;;;;;;;
2017-05-02T19:32:24.437Z;0;1.0540e+02;0;     0.149;443561.781;  92214.344; 1;  92214.344; 453045.844; 461968.844;  18407.055;272;   1.072; 229.211;;;  22.238; 177.629;  12.497;  10.526;   8.515;   1.109;   1.065;   1.045;   0.137;   0.196; 4570.029;;;;;;;;;;;;;;;;;
2017-05-02T19:32:32.437Z;0;1.0160e+02;0;     0.056;443561.781;  90527.156; 1;  90527.156; 452705.438; 461326.156;  17764.365;272;   1.071; 229.174;;;  22.200; 177.590;  12.505;  10.318;   8.305;   1.107;   1.064;   1.045;   0.139;   0.192; 4522.547;;;;;;;;;;;;;;;;;
2017-05-02T19:32:40.437Z;0;7.8470e+01;0;     0.063;443561.781;  79550.297; 1;  79550.297; 450638.781; 457397.125;  13835.351;272;   1.071; 229.137;;;  22.161; 177.551;  12.512;  10.110;   8.095;   1.105;   1.064;   1.045;   0.141;   0.188; 4475.711;;;;;;;;;;;;;;;;;
2017-05-02T19:32:48.437Z;0;9.0970e+01;0;     0.060;443561.781;  85648.570; 1;  85648.570; 451755.156; 459525.375;  15963.597;272;   1.070; 229.099;;;  22.123; 177.513;  12.520;   9.902;   7.884;   1.103;   1.063;   1.045;   0.143;   0.184; 4429.525;;;;;;;;;;;;;;;;;
2017-05-02T19:32:56.436Z;0;9.0970e+01;0;     0.053;443561.781;  85648.570; 1;  85648.570; 451755.156; 459525.375;  15963.597;272;   1.070; 229.062;;;  22.084; 177.474;  12.527;   9.693;   7.673;   1.101;   1.063;   1.044;   0.145;   0.180; 4383.998;;;;;;;;;;;;;;;;;
2017-05-02T19:33:12.436Z;0;8.4490e+01;0;     0.087;441931.250;  82543.133; 1;  82543.133; 449573.781; 456845.188;  14913.955;272;   1.068; 228.987;;;  22.007; 177.396;  12.542;   9.274;   7.250;   1.097;   1.062;   1.044;   0.149;   0.172; 4294.897;;;;;;;;;;;;;;;;;
2017-05-02T19:33:20.436Z;0;8.1430e+01;0;     0.059;441931.250;  81032.898; 1;  81032.898; 449298.969; 456320.969;  14389.720;272;   1.068; 228.950;;;  21.968; 177.357;  12.550;   9.065;   7.039;   1.095;   1.061;   1.044;   0.151;   0.168; 4251.335;;;;;;;;;;;;;;;;;
2017-05-02T19:33:28.436Z;0;9.4390e+01;0;     0.125;441931.250;  87244.836; 1;  87244.836; 450460.750; 458531.344;  16600.090;272;   1.067; 228.912;;;  21.930; 177.319;  12.557;   8.855;   6.827;   1.093;   1.061;   1.043;   0.153;   0.164; 4208.437;;;;;;;;;;;;;;;;;
2017-05-02T19:33:36.436Z;0;1.5830e+02;0;     0.049;441931.250; 112983.211; 1; 112983.211; 456145.188; 469141.000;  27209.744;272;   1.067; 228.875;;;  21.892; 177.280;  12.565;   8.645;   6.614;   1.091;   1.060;   1.043;   0.155;   0.160; 4166.204;;;;;;;;;;;;;;;;;
2017-05-02T19:33:44.436Z;0;1.5260e+02;0;     0.180;441931.250; 110916.031; 1; 110916.031; 455637.562; 468206.750;  26275.500;272;   1.066; 228.837;;;  21.853; 177.241;  12.572;   8.434;   6.402;   1.089;   1.060;   1.043;   0.157;   0.156; 4124.639;;;;;;;;;;;;;;;;;
2017-05-02T19:34:00.436Z;0;1.9760e+02;0;     0.064;440646.375; 126220.945; 1; 126220.945; 458367.688; 474240.562;  33594.191;272;   1.065; 228.763;;;  21.776; 177.164;  12.587;   8.013;   5.977;   1.086;   1.059;   1.042;   0.162;   0.148; 4043.522;;;;;;;;;;;;;;;;;
2017-05-02T19:34:08.436Z;0;1.9040e+02;0;     0.060;440646.375; 123911.562; 1; 123911.562; 457737.156; 473100.500;  32454.150;272;   1.064; 228.725;;;  21.738; 177.126;  12.595;   7.801;   5.764;   1.084;   1.059;   1.042;   0.164;   0.144; 4003.976;;;;;;;;;;;;;;;;;
2017-05-02T19:34:16.436Z;0;1.4700e+02;0;     0.064;440646.375; 108886.680; 1; 108886.680; 453900.344; 466084.469;  25438.111;272;   1.064; 228.688;;;  21.699; 177.087;  12.602;   7.590;   5.550;   1.083;   1.058;   1.041;   0.166;   0.140; 3965.107;;;;;;;;;;;;;;;;;
2017-05-02T19:34:24.436Z;0;2.2900e+02;0;     0.052;440646.375; 135896.969; 1; 135896.969; 461126.031; 479186.656;  38540.277;272;   1.063; 228.651;;;  21.661; 177.049;  12.610;   7.378;   5.337;   1.081;   1.058;   1.041;   0.168;   0.136; 3926.919;;;;;;;;;;;;;;;;;
2017-05-02T19:34:32.436Z;0;2.2070e+02;0;     0.104;440646.375; 133410.547; 1; 133410.547; 460399.375; 477890.031;  37243.660;272;   1.063; 228.613;;;  21.623; 177.010;  12.617;   7.166;   5.123;   1.080;   1.058;   1.041;   0.170;   0.132; 3889.413;;;;;;;;;;;;;;;;;